Time,TemperatureF,DewpointF,PressureIn,WindDirection,WindDirectionDegrees,WindSpeedMPH,WindSpeedGustMPH,Humidity,HourlyPrecipIn,Conditions,Clouds,dailyrainin,SoftwareType,DateUTC
2013-03-29 00:01:00,25.8,22.0,30.31,SSW,207,0.0,0.0,86,0.00,,,0.00,weatherlink.com 1.10,2013-03-29 05:01:00,
2013-03-29 00:16:00,26.9,24.0,30.31,SSW,207,0.0,0.0,88,0.00,,,0.00,weatherlink.com 1.10,2013-03-29 05:16:00,
2013-03-29 00:46:00,25.3,22.0,30.31,SSW,207,0.0,0.0,88,0.00,,,0.00,weatherlink.com 1.10,2013-03-29 05:46:00,
2013-03-29 01:46:00,24.7,22.0,30.31,SSW,207,0.0,0.0,90,0.00,,,0.00,weatherlink.com 1.10,2013-03-29 06:46:00,
2013-03-29 02:01:00,24.6,22.0,30.31,SSW,207,0.0,0.0,90,0.00,,,0.00,weatherlink.com 1.10,2013-03-29 07:01:00,
2013-03-29 02:31:00,24.7,23.0,30.31,SSW,207,0.0,0.0,91,0.00,,,0.00,weatherlink.com 1.10,2013-03-29 07:31:00,
2013-03-29 02:46:00,24.4,22.0,30.31,SSW,207,0.0,0.0,91,0.00,,,0.00,weatherlink.com 1.10,2013-03-29 07:46:00,
2013-03-29 03:01:00,24.0,22.0,30.30,SSW,207,0.0,0.0,91,0.00,,,0.00,weatherlink.com 1.10,2013-03-29 08:01:00,
2013-03-29 03:16:00,24.7,23.0,30.30,SSW,207,0.0,0.0,92,0.00,,,0.00,weatherlink.com 1.10,2013-03-29 08:16:00,
2013-03-29 03:31:00,25.3,24.0,30.31,SSW,207,0.0,0.0,93,0.00,,,0.00,weatherlink.com 1.10,2013-03-29 08:31:00,
2013-03-29 03:46:00,25.7,24.0,30.30,SSW,207,0.0,0.0,92,0.00,,,0.00,weatherlink.com 1.10,2013-03-29 08:46:00,
2013-03-29 04:16:00,27.3,26.0,30.30,SSW,207,0.0,0.0,93,0.00,,,0.00,weatherlink.com 1.10,2013-03-29 09:16:00,
2013-03-29 04:31:00,27.7,26.0,30.30,SSW,207,0.0,0.0,92,0.00,,,0.00,weatherlink.com 1.10,2013-03-29 09:31:00,
2013-03-29 05:01:00,29.3,27.0,30.29,SSW,207,0.0,0.0,92,0.00,,,0.00,weatherlink.com 1.10,2013-03-29 10:01:00,
2013-03-29 05:16:00,29.8,28.0,30.29,SSW,207,0.0,0.0,92,0.00,,,0.00,weatherlink.com 1.10,2013-03-29 10:16:00,
2013-03-29 05:31:00,30.4,28.0,30.29,SSW,207,0.0,0.0,90,0.00,,,0.00,weatherlink.com 1.10,2013-03-29 10:31:00,
2013-03-29 05:46:00,30.7,28.0,30.29,SSW,207,0.0,0.0,89,0.00,,,0.00,weatherlink.com 1.10,2013-03-29 10:46:00,
2013-03-29 06:01:00,30.8,27.0,30.29,SSW,207,0.0,0.0,87,0.00,,,0.00,weatherlink.com 1.10,2013-03-29 11:01:00,
2013-03-29 06:16:00,30.4,27.0,30.29,SSW,207,0.0,0.0,87,0.00,,,0.00,weatherlink.com 1.10,2013-03-29 11:16:00,
2013-03-29 06:31:00,30.5,27.0,30.28,SSW,207,0.0,0.0,87,0.00,,,0.00,weatherlink.com 1.10,2013-03-29 11:31:00,
2013-03-29 06:46:00,30.6,27.0,30.29,SSW,207,0.0,0.0,86,0.00,,,0.00,weatherlink.com 1.10,2013-03-29 11:46:00,
2013-03-29 07:01:00,31.0,27.0,30.29,South,188,0.0,1.0,85,0.00,,,0.00,weatherlink.com 1.10,2013-03-29 12:01:00,
2013-03-29 07:16:00,31.5,27.0,30.29,SSW,203,0.0,1.0,84,0.00,,,0.00,weatherlink.com 1.10,2013-03-29 12:16:00,
2013-03-29 07:32:00,32.1,28.0,30.29,ESE,114,0.0,0.0,83,0.00,,,0.00,weatherlink.com 1.10,2013-03-29 12:32:00,
2013-03-29 07:47:00,32.8,28.0,30.29,SE,128,0.0,1.0,82,0.00,,,0.00,weatherlink.com 1.10,2013-03-29 12:47:00,
2013-03-29 08:02:00,33.9,28.0,30.29,SSE,158,0.0,1.0,79,0.00,,,0.00,weatherlink.com 1.10,2013-03-29 13:02:00,
2013-03-29 08:17:00,34.8,28.0,30.29,SSE,150,0.0,2.0,76,0.00,,,0.00,weatherlink.com 1.10,2013-03-29 13:17:00,
2013-03-29 08:32:00,35.2,28.0,30.29,SE,141,0.0,3.0,75,0.00,,,0.00,weatherlink.com 1.10,2013-03-29 13:32:00,
2013-03-29 08:47:00,35.9,28.0,30.29,SE,139,0.0,3.0,74,0.00,,,0.00,weatherlink.com 1.10,2013-03-29 13:47:00,
2013-03-29 09:02:00,37.1,28.0,30.29,SSE,158,0.0,4.0,71,0.00,,,0.00,weatherlink.com 1.10,2013-03-29 14:02:00,
2013-03-29 09:17:00,39.5,30.0,30.29,SW,215,0.0,4.0,69,0.00,,,0.00,weatherlink.com 1.10,2013-03-29 14:17:00,
2013-03-29 09:32:00,41.3,30.0,30.28,ENE,68,4.0,4.0,64,0.00,,,0.00,weatherlink.com 1.10,2013-03-29 14:32:00,
2013-03-29 09:47:00,41.0,30.0,30.29,ESE,107,0.0,3.0,64,0.00,,,0.00,weatherlink.com 1.10,2013-03-29 14:47:00,
2013-03-29 10:02:00,40.6,30.0,30.29,ESE,113,0.0,2.0,65,0.00,,,0.00,weatherlink.com 1.10,2013-03-29 15:02:00,
2013-03-29 10:17:00,41.7,31.0,30.28,SSE,161,0.0,3.0,65,0.00,,,0.00,weatherlink.com 1.10,2013-03-29 15:17:00,
2013-03-29 10:47:00,42.2,30.0,30.28,SE,129,0.0,3.0,63,0.00,,,0.00,weatherlink.com 1.10,2013-03-29 15:47:00,
2013-03-29 11:02:00,42.9,31.0,30.28,SE,124,1.0,3.0,62,0.00,,,0.00,weatherlink.com 1.10,2013-03-29 16:02:00,
2013-03-29 11:17:00,43.2,31.0,30.28,SSE,162,0.0,3.0,62,0.00,,,0.00,weatherlink.com 1.10,2013-03-29 16:17:00,
2013-03-29 11:32:00,42.5,31.0,30.27,South,178,1.0,4.0,63,0.00,,,0.00,weatherlink.com 1.10,2013-03-29 16:32:00,
2013-03-29 11:47:00,42.3,31.0,30.28,SSE,155,0.0,3.0,64,0.00,,,0.00,weatherlink.com 1.10,2013-03-29 16:47:00,
2013-03-29 12:02:00,41.1,30.0,30.27,SE,136,0.0,4.0,65,0.00,,,0.00,weatherlink.com 1.10,2013-03-29 17:02:00,
2013-03-29 12:17:00,40.9,31.0,30.27,SE,144,0.0,2.0,67,0.00,,,0.00,weatherlink.com 1.10,2013-03-29 17:17:00,
2013-03-29 12:32:00,40.8,31.0,30.26,SSE,167,0.0,2.0,69,0.00,,,0.00,weatherlink.com 1.10,2013-03-29 17:32:00,
2013-03-29 12:47:00,41.2,31.0,30.25,SE,139,1.0,2.0,68,0.00,,,0.00,weatherlink.com 1.10,2013-03-29 17:47:00,
2013-03-29 13:02:00,43.6,32.0,30.25,ESE,115,2.0,4.0,63,0.00,,,0.00,weatherlink.com 1.10,2013-03-29 18:02:00,
2013-03-29 13:17:00,45.7,32.0,30.25,SE,135,1.0,4.0,59,0.00,,,0.00,weatherlink.com 1.10,2013-03-29 18:17:00,
2013-03-29 13:32:00,46.5,32.0,30.25,ESE,104,2.0,3.0,57,0.00,,,0.00,weatherlink.com 1.10,2013-03-29 18:32:00,
2013-03-29 13:48:00,47.3,33.0,30.24,South,185,2.0,5.0,58,0.00,,,0.00,weatherlink.com 1.10,2013-03-29 18:48:00,
2013-03-29 14:03:00,50.2,33.0,30.23,SSE,153,3.0,5.0,53,0.00,,,0.00,weatherlink.com 1.10,2013-03-29 19:03:00,
2013-03-29 14:18:00,49.9,33.0,30.23,ESE,119,0.0,-999.0,52,-99.99,,,0.00,weatherlink.com 1.10,2013-03-29 19:18:00,
2013-03-29 14:33:00,50.0,33.0,30.22,SSE,150,2.0,7.0,52,0.00,,,0.00,weatherlink.com 1.10,2013-03-29 19:33:00,
2013-03-29 14:48:00,50.5,33.0,30.22,SSE,159,1.0,5.0,52,0.00,,,0.00,weatherlink.com 1.10,2013-03-29 19:48:00,
2013-03-29 15:03:00,52.2,33.0,30.21,SE,145,1.0,3.0,49,0.00,,,0.00,weatherlink.com 1.10,2013-03-29 20:03:00,
2013-03-29 15:18:00,51.9,34.0,30.21,SE,132,1.0,4.0,50,0.00,,,0.00,weatherlink.com 1.10,2013-03-29 20:18:00,
2013-03-29 15:33:00,52.3,34.0,30.20,SSW,193,0.0,4.0,50,0.00,,,0.00,weatherlink.com 1.10,2013-03-29 20:33:00,
2013-03-29 15:48:00,51.4,34.0,30.20,SE,139,1.0,9.0,51,0.00,,,0.00,weatherlink.com 1.10,2013-03-29 20:48:00,
2013-03-29 16:03:00,51.7,34.0,30.19,SSE,150,2.0,5.0,52,0.00,,,0.00,weatherlink.com 1.10,2013-03-29 21:03:00,
2013-03-29 16:18:00,52.0,35.0,30.18,SSE,149,2.0,4.0,52,0.00,,,0.00,weatherlink.com 1.10,2013-03-29 21:18:00,
2013-03-29 16:33:00,51.3,35.0,30.18,SE,132,3.0,8.0,54,0.00,,,0.00,weatherlink.com 1.10,2013-03-29 21:33:00,
2013-03-29 16:48:00,51.1,35.0,30.17,SSW,203,2.0,5.0,54,0.00,,,0.00,weatherlink.com 1.10,2013-03-29 21:48:00,
2013-03-29 17:03:00,49.8,34.0,30.17,SE,136,0.0,4.0,56,0.00,,,0.00,weatherlink.com 1.10,2013-03-29 22:03:00,
2013-03-29 17:18:00,49.0,35.0,30.17,SSE,160,2.0,5.0,59,0.00,,,0.00,weatherlink.com 1.10,2013-03-29 22:18:00,
2013-03-29 17:33:00,48.3,35.0,30.17,SSE,165,1.0,5.0,61,0.00,,,0.00,weatherlink.com 1.10,2013-03-29 22:33:00,
2013-03-29 17:48:00,48.1,35.0,30.16,SSE,155,1.0,4.0,62,0.00,,,0.00,weatherlink.com 1.10,2013-03-29 22:48:00,
2013-03-29 18:03:00,48.5,36.0,30.16,SSE,160,2.0,3.0,62,0.00,,,0.00,weatherlink.com 1.10,2013-03-29 23:03:00,
2013-03-29 18:18:00,47.9,36.0,30.16,SW,217,1.0,3.0,64,0.00,,,0.00,weatherlink.com 1.10,2013-03-29 23:18:00,
2013-03-29 18:33:00,47.0,36.0,30.15,SSE,165,0.0,4.0,66,0.00,,,0.00,weatherlink.com 1.10,2013-03-29 23:33:00,
2013-03-29 18:48:00,46.2,36.0,30.15,SE,135,1.0,3.0,68,0.00,,,0.00,weatherlink.com 1.10,2013-03-29 23:48:00,
2013-03-29 19:03:00,45.4,36.0,30.14,SSE,156,2.0,5.0,70,0.00,,,0.00,weatherlink.com 1.10,2013-03-30 00:03:00,
2013-03-29 19:18:00,44.5,36.0,30.14,SSE,160,0.0,2.0,72,0.00,,,0.00,weatherlink.com 1.10,2013-03-30 00:18:00,
2013-03-29 19:33:00,43.3,36.0,30.14,SE,132,0.0,2.0,74,0.00,,,0.00,weatherlink.com 1.10,2013-03-30 00:33:00,
2013-03-29 19:48:00,41.8,35.0,30.14,SE,143,0.0,0.0,76,0.00,,,0.00,weatherlink.com 1.10,2013-03-30 00:48:00,
2013-03-29 20:03:00,41.0,34.0,30.14,East,101,0.0,1.0,77,0.00,,,0.00,weatherlink.com 1.10,2013-03-30 01:03:00,
2013-03-29 20:18:00,40.9,35.0,30.14,SE,146,0.0,3.0,79,0.00,,,0.00,weatherlink.com 1.10,2013-03-30 01:18:00,
2013-03-29 20:33:00,40.7,35.0,30.13,SE,132,0.0,2.0,79,0.00,,,0.00,weatherlink.com 1.10,2013-03-30 01:33:00,
2013-03-29 20:48:00,40.4,35.0,30.13,SE,129,0.0,2.0,81,0.00,,,0.00,weatherlink.com 1.10,2013-03-30 01:48:00,
2013-03-29 21:03:00,40.0,35.0,30.13,SSW,204,1.0,2.0,81,0.00,,,0.00,weatherlink.com 1.10,2013-03-30 02:03:00,
2013-03-29 21:18:00,40.5,35.0,30.13,SE,142,0.0,1.0,81,0.00,,,0.00,weatherlink.com 1.10,2013-03-30 02:18:00,
2013-03-29 21:33:00,40.9,35.0,30.13,ESE,104,0.0,2.0,80,0.00,,,0.00,weatherlink.com 1.10,2013-03-30 02:33:00,
2013-03-29 21:48:00,40.7,35.0,30.13,SSE,148,1.0,2.0,80,0.00,,,0.00,weatherlink.com 1.10,2013-03-30 02:48:00,
2013-03-29 22:03:00,40.3,35.0,30.12,SSE,149,0.0,1.0,81,0.00,,,0.00,weatherlink.com 1.10,2013-03-30 03:03:00,
2013-03-29 22:18:00,40.2,35.0,30.12,SSE,150,0.0,1.0,82,0.00,,,0.00,weatherlink.com 1.10,2013-03-30 03:18:00,
2013-03-29 22:33:00,39.9,35.0,30.12,SE,143,0.0,1.0,83,0.00,,,0.00,weatherlink.com 1.10,2013-03-30 03:33:00,
2013-03-29 22:48:00,40.4,36.0,30.11,ESE,122,1.0,3.0,83,0.00,,,0.00,weatherlink.com 1.10,2013-03-30 03:48:00,
2013-03-29 23:03:00,40.9,36.0,30.11,SE,142,1.0,3.0,82,0.00,,,0.00,weatherlink.com 1.10,2013-03-30 04:03:00,
2013-03-29 23:18:00,40.7,36.0,30.10,SE,141,0.0,4.0,82,0.00,,,0.00,weatherlink.com 1.10,2013-03-30 04:18:00,
2013-03-29 23:34:00,40.6,36.0,30.10,SSE,152,0.0,2.0,82,0.00,,,0.00,weatherlink.com 1.10,2013-03-30 04:34:00,
2013-03-29 23:49:00,40.4,36.0,30.09,SSE,148,0.0,3.0,83,0.00,,,0.00,weatherlink.com 1.10,2013-03-30 04:49:00,